La Grange, GA

5:23 AM EDT on September 26, 2017 (GMT -0400)
Lagrange-Callaway

Weather History for KLGC - February, 2013

Change the Weather History Date:

Friday, February 15, 2013

  Actual Average Record
Temperature  
Mean Temperature 46 °F -  
Max Temperature 64 °F 62 °F 80 °F (1989)
Min Temperature 29 °F 37 °F 17 °F (1985)
Degree Days  
Heating Degree Days 19    
Moisture  
Dew Point 34 °F    
Average Humidity 70    
Maximum Humidity 100    
Minimum Humidity 32    
Precipitation  
Precipitation 0.00 in - - ()
Sea Level Pressure  
Sea Level Pressure 30.07 in    
Wind  
Wind Speed 2 mph (NW)    
Max Wind Speed 12 mph    
Max Gust Speed 17 mph    
Visibility 10 miles    
Events      
Averages and records for this station are not official NWS values.
T = Trace of Precipitation, MM = Missing Value Source: NWS Daily Summary

Daily Weather History Graph

Daily Weather History Graph

Search for Another Location

Airport or City:

Trip Planner

Search our weather history database for the weather conditions in past years. The results will help you decide how hot, cold, wet, or windy it might be!

Date:

Astronomy

Feb. 15, 2013 Rise Set
Actual Time 7:23 AM EST 6:25 PM EST
Civil Twilight 6:58 AM EST 6:51 PM EST
Nautical Twilight 6:29 AM EST 7:20 PM EST
Astronomical Twilight 6:00 AM EST 7:48 PM EST
Moon 10:19 AM EST (2/15) No Moon Set
Length of Visible Light 11h 52m
Length of Day
11h 02m
Waxing Crescent, 30% of the Moon is Illuminated
Feb 15
Waxing Crescent
Feb 17
First Quarter
Feb 25
Full
Mar 4
Last Quarter
Mar 11
New

Hourly Weather History & Observations

Time (EST) Temp. Windchill Dew Point Humidity Pressure Visibility Wind Dir Wind Speed Gust Speed Precip Events Conditions
12:15 AM 34.9 °F - 34.2 °F 97% 30.09 in 10.0 mi Calm Calm - N/A   Clear
12:35 AM 34.7 °F - 33.4 °F 95% 30.09 in 10.0 mi Calm Calm - N/A   Clear
12:55 AM 33.1 °F - 32.5 °F 98% 30.09 in 10.0 mi Calm Calm - N/A   Clear
1:15 AM 33.1 °F - 32.0 °F 96% 30.08 in 10.0 mi Calm Calm - N/A   Clear
1:35 AM 32.7 °F - 31.8 °F 96% 30.08 in 10.0 mi Calm Calm - N/A   Clear
1:55 AM 32.2 °F - 32.0 °F 99% 30.08 in 10.0 mi Calm Calm - N/A   Clear
2:15 AM 32.9 °F - 32.0 °F 96% 30.08 in 10.0 mi Calm Calm - N/A   Clear
2:35 AM 32.0 °F - 31.1 °F 96% 30.08 in 10.0 mi Calm Calm - N/A   Clear
2:55 AM 32.0 °F - 30.7 °F 95% 30.08 in 10.0 mi Calm Calm - N/A   Clear
3:15 AM 32.0 °F - 32.0 °F 100% 30.07 in 10.0 mi Calm Calm - N/A   Clear
3:35 AM 32.0 °F - 31.8 °F 99% 30.07 in 10.0 mi Calm Calm - N/A   Clear
3:55 AM 32.0 °F - 31.6 °F 99% 30.07 in 10.0 mi Calm Calm - N/A   Clear
4:15 AM 31.1 °F - 30.9 °F 99% 30.08 in 10.0 mi Calm Calm - N/A   Clear
4:35 AM 31.1 °F - 31.1 °F 100% 30.08 in 7.0 mi Calm Calm - N/A   Clear
4:55 AM 31.6 °F - 31.5 °F 99% 30.09 in 7.0 mi Calm Calm - N/A   Clear
5:15 AM 30.7 °F - 29.5 °F 95% 30.09 in 10.0 mi Calm Calm - N/A   Clear
5:35 AM 30.2 °F - 29.3 °F 96% 30.10 in 10.0 mi Calm Calm - N/A   Clear
5:55 AM 31.1 °F - 30.2 °F 96% 30.11 in 10.0 mi Calm Calm - N/A   Clear
6:15 AM 30.9 °F - 30.0 °F 96% 30.11 in 10.0 mi Calm Calm - N/A   Clear
6:35 AM 30.2 °F - 28.9 °F 95% 30.11 in 10.0 mi Calm Calm - N/A   Clear
6:55 AM 29.5 °F - 29.1 °F 99% 30.11 in 10.0 mi Calm Calm - N/A   Clear
7:15 AM 30.4 °F - 30.2 °F 99% 30.12 in 10.0 mi Calm Calm - N/A   Clear
7:35 AM 30.2 °F - 29.3 °F 96% 30.12 in 10.0 mi Calm Calm - N/A   Clear
7:55 AM 29.8 °F - 28.9 °F 96% 30.12 in 10.0 mi Calm Calm - N/A   Clear
8:15 AM 32.0 °F - 30.7 °F 95% 30.13 in 10.0 mi Calm Calm - N/A   Clear
8:35 AM 34.5 °F - 32.5 °F 92% 30.12 in 10.0 mi Calm Calm - N/A   Clear
8:55 AM 37.6 °F - 34.9 °F 90% 30.13 in 10.0 mi Calm Calm - N/A   Clear
9:15 AM 40.1 °F - 36.5 °F 87% 30.14 in 10.0 mi Calm Calm - N/A   Clear
9:35 AM 43.0 °F - 38.5 °F 84% 30.14 in 10.0 mi Calm Calm - N/A   Clear
9:55 AM 46.2 °F - 40.6 °F 81% 30.14 in 10.0 mi Calm Calm - N/A   Clear
10:15 AM 50.0 °F - 41.4 °F 72% 30.14 in 10.0 mi Calm Calm - N/A   Clear
10:35 AM 53.6 °F - 39.9 °F 60% 30.14 in 10.0 mi NNW 5.8 mph - N/A   Clear
10:55 AM 54.9 °F - 39.6 °F 56% 30.13 in 10.0 mi NNW 5.8 mph - N/A   Clear
11:15 AM 55.8 °F - 39.0 °F 53% 30.13 in 10.0 mi NW 3.5 mph - N/A   Clear
11:35 AM 56.5 °F - 39.0 °F 52% 30.13 in 10.0 mi Calm Calm - N/A   Clear
11:55 AM 57.2 °F - 38.1 °F 49% 30.12 in 10.0 mi Calm Calm - N/A   Clear
12:15 PM 58.6 °F - 37.6 °F 46% 30.11 in 10.0 mi West 3.5 mph - N/A   Clear
12:55 PM 60.6 °F - 36.1 °F 40% 30.09 in 10.0 mi NW 5.8 mph - N/A   Clear
1:15 PM 61.3 °F - 35.4 °F 38% 30.07 in 10.0 mi WSW 8.1 mph - N/A   Clear
1:35 PM 62.1 °F - 36.7 °F 39% 30.06 in 10.0 mi NW 6.9 mph - N/A   Clear
1:55 PM 62.1 °F - 34.7 °F 36% 30.04 in 10.0 mi NNW 5.8 mph - N/A   Clear
2:15 PM 62.1 °F - 35.2 °F 37% 30.04 in 10.0 mi West 4.6 mph - N/A   Clear
2:35 PM 62.2 °F - 34.9 °F 36% 30.02 in 10.0 mi NW 6.9 mph - N/A   Clear
2:55 PM 63.0 °F - 35.4 °F 36% 30.01 in 10.0 mi WNW 5.8 mph - N/A   Clear
3:15 PM 62.8 °F - 34.3 °F 35% 30.01 in 10.0 mi NNW 6.9 mph - N/A   Clear
3:35 PM 63.3 °F - 34.0 °F 33% 30.01 in 10.0 mi WNW 11.5 mph - N/A   Clear
3:55 PM 63.0 °F - 33.6 °F 33% 30.01 in 10.0 mi West 8.1 mph - N/A   Scattered Clouds
4:15 PM 63.1 °F - 32.7 °F 32% 30.01 in 10.0 mi West 9.2 mph - N/A   Scattered Clouds
4:35 PM 63.5 °F - 33.8 °F 33% 30.01 in 10.0 mi WNW 6.9 mph 10.4 mph N/A   Scattered Clouds
4:55 PM 62.6 °F - 32.9 °F 33% 30.01 in 10.0 mi West 9.2 mph - N/A   Scattered Clouds
5:15 PM 62.8 °F - 34.0 °F 34% 30.01 in 10.0 mi WNW 9.2 mph - N/A   Scattered Clouds
5:35 PM 61.7 °F - 34.2 °F 36% 30.00 in 10.0 mi West 9.2 mph - N/A   Mostly Cloudy
5:55 PM 60.3 °F - 34.7 °F 38% 30.00 in 10.0 mi WNW 8.1 mph - N/A   Mostly Cloudy
6:15 PM 60.3 °F - 34.9 °F 39% 30.00 in 10.0 mi WNW 9.2 mph - N/A   Overcast
6:35 PM 57.7 °F - 34.7 °F 42% 30.01 in 10.0 mi WNW 8.1 mph - N/A   Scattered Clouds
6:55 PM 54.3 °F - 35.6 °F 49% 30.01 in 10.0 mi Calm Calm - N/A   Clear
7:15 PM 53.4 °F - 36.7 °F 53% 30.01 in 10.0 mi Calm Calm - N/A   Clear
7:35 PM 50.9 °F - 36.9 °F 59% 30.01 in 10.0 mi Calm Calm - N/A   Clear
7:55 PM 49.8 °F - 37.6 °F 63% 30.01 in 10.0 mi Calm Calm - N/A   Clear
8:15 PM 45.5 °F - 37.4 °F 73% 30.01 in 10.0 mi Calm Calm - N/A   Clear
8:35 PM 44.6 °F - 37.2 °F 75% 30.01 in 10.0 mi Calm Calm - N/A   Clear
8:55 PM 43.7 °F - 36.7 °F 76% 30.01 in 10.0 mi Calm Calm - N/A   Clear
9:15 PM 43.2 °F 41.5 °F 37.2 °F 80% 30.02 in 10.0 mi NW 3.5 mph - N/A   Clear
9:35 PM 43.5 °F 41.9 °F 37.2 °F 78% 30.02 in 10.0 mi NNW 3.5 mph - N/A   Scattered Clouds
9:55 PM 44.8 °F 41.6 °F 36.5 °F 73% 30.03 in 10.0 mi NNW 5.8 mph - N/A   Clear
10:15 PM 49.5 °F - 38.3 °F 65% 30.04 in 10.0 mi NNW 8.1 mph - N/A   Clear
10:35 PM 49.1 °F - 37.8 °F 65% 30.04 in 10.0 mi North 10.4 mph 17.3 mph N/A   Clear
10:55 PM 48.7 °F - 36.3 °F 62% 30.04 in 10.0 mi NNW 8.1 mph - N/A   Clear
11:15 PM 48.2 °F - 36.0 °F 63% 30.04 in 10.0 mi NNW 5.8 mph - N/A   Clear
11:35 PM 47.3 °F - 35.6 °F 64% 30.04 in 10.0 mi Calm Calm - N/A   Scattered Clouds
11:55 PM 46.2 °F 44.1 °F 35.6 °F 66% 30.04 in 10.0 mi NNW 4.6 mph - N/A   Scattered Clouds